Little Falls, MN

7:58 AM CDT on April 30, 2017 (GMT -0500)
Little Falls-Morrison County

Weather History for KLXL - February, 2014

Change the Weather History Date:

Wednesday, February 19, 2014

  Actual Average Record
Temperature  
Mean Temperature 22 °F -  
Max Temperature 39 °F 28 °F 55 °F (2017)
Min Temperature 5 °F 7 °F -24 °F (1941)
Degree Days  
Heating Degree Days 43    
Moisture  
Dew Point 20 °F    
Average Humidity 80    
Maximum Humidity 93    
Minimum Humidity 61    
Precipitation  
Precipitation 0.00 in - - ()
Sea Level Pressure  
Sea Level Pressure 29.70 in    
Wind  
Wind Speed 3 mph (SSE)    
Max Wind Speed 15 mph    
Max Gust Speed 20 mph    
Visibility 8 miles    
Events Fog    
Averages and records for this station are not official NWS values.
T = Trace of Precipitation, MM = Missing Value Source: NWS Daily Summary

Daily Weather History Graph

Daily Weather History Graph

Search for Another Location

Airport or City:

Trip Planner

Search our weather history database for the weather conditions in past years. The results will help you decide how hot, cold, wet, or windy it might be!

Date:

Astronomy

Feb. 19, 2014 Rise Set
Actual Time 7:13 AM CST 5:49 PM CST
Civil Twilight 6:42 AM CST 6:20 PM CST
Nautical Twilight 6:08 AM CST 6:54 PM CST
Astronomical Twilight 5:33 AM CST 7:29 PM CST
Moon 11:02 PM CST (2/19) 9:03 AM CST (2/19)
Length of Visible Light 11h 37m
Length of Day
10h 36m
Waning Gibbous, 79% of the Moon is Illuminated
Feb 19
Waning Gibbous
Feb 22
Last Quarter
Mar 1
New
Mar 8
First Quarter
Mar 16
Full

Hourly Weather History & Observations

Time (CST) Temp. Windchill Dew Point Humidity Pressure Visibility Wind Dir Wind Speed Gust Speed Precip Events Conditions
12:17 AM 19.4 °F - 15.8 °F 86% 29.74 in 10.0 mi Calm Calm - N/A   Clear
12:37 AM 19.4 °F - 15.8 °F 86% 29.74 in 10.0 mi Calm Calm - N/A   Clear
12:57 AM 19.4 °F - 15.8 °F 86% 29.74 in 7.0 mi Calm Calm - N/A   Clear
1:17 AM 19.4 °F - 17.6 °F 93% 29.73 in 7.0 mi Calm Calm - N/A   Clear
1:37 AM 14.0 °F - 12.2 °F 93% 29.74 in 7.0 mi Calm Calm - N/A   Clear
1:57 AM 17.6 °F - 14.0 °F 86% 29.74 in 10.0 mi Calm Calm - N/A   Clear
2:17 AM 17.6 °F - 14.0 °F 86% 29.74 in 10.0 mi Calm Calm - N/A   Clear
2:37 AM 15.8 °F - 12.2 °F 86% 29.74 in 7.0 mi Calm Calm - N/A   Clear
2:57 AM 17.6 °F - 14.0 °F 86% 29.74 in 7.0 mi Calm Calm - N/A   Clear
3:17 AM 14.0 °F - 10.4 °F 86% 29.74 in 5.0 mi Calm Calm - N/A   Clear
3:37 AM 14.0 °F - 12.2 °F 93% 29.75 in 7.0 mi Calm Calm - N/A   Clear
3:57 AM 12.2 °F - 10.4 °F 92% 29.75 in 7.0 mi Calm Calm - N/A   Clear
4:17 AM 17.6 °F - 14.0 °F 86% 29.75 in 7.0 mi Calm Calm - N/A   Clear
4:37 AM 14.0 °F - 10.4 °F 86% 29.75 in 5.0 mi Calm Calm - N/A   Clear
4:57 AM 10.4 °F - 8.6 °F 92% 29.75 in 7.0 mi Calm Calm - N/A   Clear
5:17 AM 14.0 °F - 12.2 °F 93% 29.75 in 4.0 mi Calm Calm - N/A   Clear
5:37 AM 12.2 °F - 10.4 °F 92% 29.75 in 5.0 mi Calm Calm - N/A   Clear
5:57 AM 12.2 °F - 8.6 °F 85% 29.75 in 7.0 mi Calm Calm - N/A   Clear
6:17 AM 8.6 °F - 3.2 °F 79% 29.75 in 5.0 mi Calm Calm - N/A   Scattered Clouds
6:37 AM 10.4 °F - 6.8 °F 85% - 7.0 mi Calm Calm - N/A   Scattered Clouds
6:57 AM 10.4 °F - 6.8 °F 85% 29.75 in 5.0 mi Calm Calm - N/A   Scattered Clouds
7:17 AM 5.0 °F - 1.4 °F 85% 29.75 in 10.0 mi Calm Calm - N/A   Scattered Clouds
7:37 AM 5.0 °F - 1.4 °F 85% 29.75 in 5.0 mi Calm Calm - N/A   Mostly Cloudy
7:57 AM 5.0 °F - -0.4 °F 78% 29.76 in 7.0 mi Calm Calm - N/A   Overcast
8:17 AM 10.4 °F - 6.8 °F 85% 29.76 in 0.2 mi Calm Calm - N/A Fog Light Freezing Fog
8:37 AM 12.2 °F - 8.6 °F 85% 29.76 in 1.8 mi Calm Calm - N/A   Mist
8:57 AM 17.6 °F - 14.0 °F 86% 29.77 in 0.2 mi Calm Calm - N/A Fog Light Freezing Fog
9:17 AM 19.4 °F - 17.6 °F 93% 29.77 in 0.8 mi Calm Calm - N/A   Mist
9:37 AM 21.2 °F - 19.4 °F 93% 29.77 in 4.0 mi Calm Calm - N/A   Clear
9:57 AM 23.0 °F - 21.2 °F 93% 29.77 in 7.0 mi Calm Calm - N/A   Clear
10:17 AM 24.8 °F - 23.0 °F 93% 29.76 in 10.0 mi Calm Calm - N/A   Clear
10:37 AM 26.6 °F 21.2 °F 24.8 °F 93% 29.76 in 10.0 mi South 4.6 mph - N/A   Clear
10:57 AM 28.4 °F 24.6 °F 26.6 °F 93% 29.76 in 10.0 mi South 3.5 mph - N/A   Clear
11:17 AM 30.2 °F 25.4 °F 24.8 °F 80% 29.76 in 10.0 mi South 4.6 mph - N/A   Clear
11:37 AM 32.0 °F 25.6 °F 21.2 °F 64% 29.75 in 10.0 mi South 6.9 mph - N/A   Clear
11:57 AM 32.0 °F 25.6 °F 21.2 °F 64% 29.74 in 10.0 mi South 6.9 mph - N/A   Clear
12:17 PM 33.8 °F 27.7 °F 23.0 °F 65% 29.74 in 10.0 mi South 6.9 mph - N/A   Clear
12:37 PM 33.8 °F 27.7 °F 23.0 °F 65% 29.74 in 10.0 mi SSW 6.9 mph - N/A   Clear
12:57 PM 33.8 °F 27.0 °F 23.0 °F 65% 29.73 in 10.0 mi SSW 8.1 mph - N/A   Clear
1:17 PM 33.8 °F 26.4 °F 24.8 °F 70% 29.72 in 10.0 mi SSW 9.2 mph - N/A   Clear
1:37 PM 33.8 °F 29.6 °F 24.8 °F 70% 29.71 in 10.0 mi South 4.6 mph - N/A   Clear
1:57 PM 35.6 °F 29.2 °F 24.8 °F 65% 29.72 in 10.0 mi South 8.1 mph - N/A   Clear
2:17 PM 35.6 °F 30.7 °F 26.6 °F 70% 29.71 in 10.0 mi SSW 5.8 mph - N/A   Clear
2:37 PM 37.4 °F - 26.6 °F 65% 29.70 in 10.0 mi Calm Calm - N/A   Clear
2:57 PM 39.2 °F 34.2 °F 26.6 °F 61% 29.69 in 10.0 mi South 6.9 mph - N/A   Clear
3:17 PM 39.2 °F 32.5 °F 26.6 °F 61% 29.69 in 10.0 mi SSE 10.4 mph - N/A   Clear
3:37 PM 39.2 °F 32.5 °F 26.6 °F 61% 29.68 in 10.0 mi SSE 10.4 mph - N/A   Clear
3:57 PM 37.4 °F 30.3 °F 26.6 °F 65% 29.67 in 10.0 mi ESE 10.4 mph - N/A   Clear
4:17 PM 37.4 °F 30.8 °F 26.6 °F 65% 29.67 in 10.0 mi SE 9.2 mph - N/A   Clear
4:37 PM 35.6 °F 28.0 °F 28.4 °F 75% 29.67 in 10.0 mi ESE 10.4 mph - N/A   Clear
4:57 PM 35.6 °F 28.0 °F 28.4 °F 75% 29.67 in 10.0 mi SE 10.4 mph 17.3 mph N/A   Clear
5:17 PM 33.8 °F 25.8 °F 28.4 °F 81% 29.67 in 10.0 mi SE 10.4 mph 17.3 mph N/A   Clear
5:37 PM 33.8 °F 24.3 °F 26.6 °F 75% 29.66 in 10.0 mi SE 13.8 mph 19.6 mph N/A   Clear
5:57 PM 33.8 °F 25.8 °F 26.6 °F 75% 29.66 in 10.0 mi SE 10.4 mph - N/A   Clear
6:17 PM 32.0 °F 24.8 °F 26.6 °F 80% 29.65 in 10.0 mi ESE 8.1 mph - N/A   Clear
6:37 PM 32.0 °F 25.6 °F 26.6 °F 80% 29.65 in 10.0 mi SE 6.9 mph - N/A   Clear
6:57 PM 32.0 °F 24.2 °F 26.6 °F 80% 29.65 in 10.0 mi ESE 9.2 mph - N/A   Clear
7:17 PM 32.0 °F 23.0 °F 26.6 °F 80% 29.64 in 10.0 mi SE 11.5 mph 17.3 mph N/A   Scattered Clouds
7:37 PM 32.0 °F 22.5 °F 26.6 °F 80% 29.63 in 10.0 mi SE 12.7 mph - N/A   Overcast
7:57 PM 33.8 °F 25.8 °F 26.6 °F 75% 29.62 in 10.0 mi ESE 10.4 mph 16.1 mph N/A   Overcast
8:17 PM 33.8 °F 25.3 °F 26.6 °F 75% 29.61 in 10.0 mi SE 11.5 mph - N/A   Mostly Cloudy
8:37 PM 32.0 °F 22.5 °F 26.6 °F 80% 29.61 in 10.0 mi SE 12.7 mph 17.3 mph N/A   Scattered Clouds
8:57 PM 32.0 °F 23.6 °F 26.6 °F 80% 29.61 in 10.0 mi SE 10.4 mph - N/A   Clear
9:17 PM 32.0 °F 23.6 °F 26.6 °F 80% 29.60 in 10.0 mi SE 10.4 mph 16.1 mph N/A   Clear
9:37 PM 33.8 °F 25.3 °F 26.6 °F 75% 29.60 in 10.0 mi SE 11.5 mph - N/A   Scattered Clouds
9:57 PM 33.8 °F 24.3 °F 26.6 °F 75% 29.59 in 10.0 mi SE 13.8 mph - N/A   Scattered Clouds
10:17 PM 33.8 °F 24.3 °F 28.4 °F 81% 29.59 in 10.0 mi SE 13.8 mph - N/A   Clear
10:37 PM 33.8 °F 23.9 °F 28.4 °F 81% 29.59 in 10.0 mi SE 15.0 mph - N/A   Clear
10:57 PM 33.8 °F 23.9 °F 28.4 °F 81% 29.59 in 10.0 mi SE 15.0 mph - N/A   Clear
11:17 PM 33.8 °F 24.8 °F 28.4 °F 81% 29.58 in 10.0 mi SE 12.7 mph - N/A   Clear
11:37 PM 33.8 °F 24.8 °F 28.4 °F 81% 29.58 in 10.0 mi SE 12.7 mph 18.4 mph N/A   Clear
11:57 PM 33.8 °F 24.3 °F 28.4 °F 81% 29.58 in 10.0 mi SSE 13.8 mph - N/A   Clear